Voltar ao catálogo

SL-8 R/B

AtivoPO
NORAD 26819·ROCKET BODY·🇷🇺 Russia

Lançado Jun 8, 2001 de Plesetsk Cosmodrome

Loading…

Próximas Passagens (próximas 24 horas)

TLE

AtualizadoSource: Space-Track

Época: Sep 14, 2026, 15:22 UTC

1 26819U 01023B   26257.64041828  .00000103  00000-0  89979-4 0  9997
2 26819  82.9247 133.7037 0024213  89.8119 299.2417 13.75950629268638

Acompanhe SL-8 R/B em tempo real com AllMySat

Download on the App Store